Weather observations for the past three days for
Saranac Lake, Adirondack Regional Airport
Imperial (Metric)
Date Time (edt) Wind (mph) Vis. (mi.) Weather Sky Cond. Temperature (ºF) Relative Humidity Wind Chill (°F) Heat Index (°F) Pressure Precipitation (in)
Air Dwpt 6 hour altimeter (in) sea level (mb) 1 hr 3 hr 6 hr
Max. Min.
24 01:51 Calm 3.00 Fog/Mist FEW002 55.9 55 66 55.9 97% 30.15 1020.5
24 00:51 Calm 1.00 Fog/Mist VV002 57.9 55.9 93% 30.15 1020.6
23 23:51 Calm 1.50 Fog/Mist CLR 60.1 57.9 93% 30.15 1020.7
23 22:51 Calm 7.00 Mostly Cloudy BKN085 61 60.1 97% 30.15 1020.7
23 21:51 N 3 10.00 Overcast OVC095 63 60.1 90% 30.16 1020.7
23 20:51 Calm 10.00 Overcast FEW025 BKN060 OVC100 64 61 90% 30.14 1020.2
23 19:51 N 5 9.00 Overcast FEW020 BKN085 OVC110 66 63 78.1 66 90% 30.13 1019.7 0.06 0.11
23 18:51 SE 5 3.00 Rain OVC027 69.1 63 81% 30.11 1019.0 0.05
23 17:51 NE 7 10.00 Mostly Cloudy FEW033 SCT041 BKN110 73.9 60.1 62% 30.09 1018.2
23 16:51 NE 10 10.00 Partly Cloudy SCT037 77 59 54% 79 30.09 1017.9
23 15:51 NE 8 10.00 Mostly Cloudy FEW050 BKN120 75.9 60.1 58% 78 30.08 1017.8
23 14:51 Calm 10.00 Partly Cloudy FEW035 FEW070 SCT110 77 57 50% 79 30.08 1017.9
23 13:51 Calm 10.00 Mostly Cloudy BKN110 73 60.1 73.9 63 64% 30.09 1018.1
23 12:51 Calm 10.00 Partly Cloudy SCT120 71.1 61 71% 30.09 1018.2
23 11:51 Calm 10.00 Mostly Cloudy FEW014 SCT020 BKN110 70 61 73% 30.09 1018.2
23 10:51 E 3 10.00 Overcast SCT008 OVC090 66.9 62.1 84% 30.09 1018.2
23 09:51 Calm 10.00 Overcast BKN006 BKN017 OVC100 64.9 62.1 90% 30.08 1017.9
23 08:51 NE 3 9.00 Overcast SCT003 SCT075 OVC090 64 62.1 93% 30.07 1017.5
23 07:51 Calm 8.00 Overcast OVC011 63 61 64.9 62.1 93% 30.06 1017.4 0.01 0.42
23 06:51 Calm 4.00 Light Rain Fog/Mist FEW013 SCT070 OVC090 63 61 93% 30.05 1016.8 0.05
23 05:51 Calm 2.50 Rain Fog/Mist FEW013 BKN019 OVC095 62.1 61 96% 30.04 1016.3 0.07
23 04:51 Calm 6.00 Light Rain Fog/Mist BKN012 OVC021 63 61 93% 30.03 1016.1 0.1 0.29
23 03:51 W 5 5.00 Rain Fog/Mist FEW055 BKN070 OVC090 63 60.1 90% 30.01 1015.4 0.19
23 02:51 Calm 6.00 Fog/Mist FEW005 BKN029 OVC070 64 62.1 93% 30.02 1015.6
23 01:51 Calm 5.00 Fog/Mist FEW055 BKN075 BKN100 63 61 73 63 93% 30.03 1015.9 0.06
23 00:51 Calm 5.00 Fog/Mist CLR 63 61 93% 30.03 1016.0
22 23:51 Calm 5.00 Fog/Mist SCT110 64 62.1 93% 30.03 1016.3
22 22:51 S 3 2.50 Heavy Rain FEW014 BKN040 OVC120 66.9 61 81% 30.04 1016.4 0.06 0.06
22 21:51 Calm 10.00 Mostly Cloudy BKN043 BKN055 BKN075 68 63 84% 30.05 1016.5
22 20:51 Calm 10.00 Overcast SCT043 OVC060 69.1 62.1 78% 30.04 1016.4
22 19:51 Calm 10.00 Mostly Cloudy BKN055 BKN100 73 61 81 72 66% 30.03 1016.2
22 18:51 Calm 10.00 Mostly Cloudy SCT055 BKN070 75 61 62% 77 30.01 1015.9
22 17:51 Vrbl 5 10.00 Mostly Cloudy FEW050 BKN060 BKN095 77 57 50% 79 30.02 1016.3
22 16:51 Vrbl 5 10.00 A Few Clouds FEW080 79 57 47% 80 30.02 1016.1
22 15:51 SW 8 10.00 Mostly Cloudy SCT050 BKN060 78.1 57.9 50% 79 30.03 1016.6
22 14:51 Calm 10.00 Partly Cloudy FEW049 FEW060 SCT080 79 55.9 45% 80 30.05 1017.3
22 13:51 Vrbl 3 10.00 Mostly Cloudy BKN065 77 55.9 78.1 57.9 48% 79 30.07 1017.7
22 12:51 Vrbl 5 10.00 Mostly Cloudy SCT055 BKN070 75 54 48% 78 30.08 1018.2
22 11:51 SW 12 G 17 10.00 A Few Clouds FEW041 73.9 54 50% 30.1 1018.8
22 10:51 SW 8 G 16 10.00 A Few Clouds FEW039 72 57.9 61% 30.09 1018.7
22 09:51 Vrbl 3 10.00 Fair CLR 71.1 57.9 63% 30.1 1018.7
22 08:51 SW 6 10.00 Fair CLR 66 57.9 75% 30.11 1019.1
22 07:51 Calm 10.00 Fair CLR 57.9 55.9 57.9 46.9 93% 30.1 1019.0
22 06:51 Calm 10.00 Partly Cloudy SCT001 51.1 50 96% 30.11 1019.3
22 05:51 Calm 1.50 Fog/Mist OVC002 46.9 45 93% 30.1 1019.2
22 04:51 Calm 1.25 Fog/Mist OVC002 48.9 48 97% 30.1 1019.1
22 03:51 Calm 0.50 Fog VV002 48 46 93% 30.1 1019.0
22 02:51 Calm 9.00 Mostly Cloudy BKN002 46.9 46 97% 30.11 1019.3
22 01:51 Calm 10.00 A Few Clouds FEW001 FEW050 50 48 60.1 48.9 93% 30.12 1019.6
22 00:51 Calm 2.50 Fog/Mist CLR 50 48.9 96% 30.11 1019.5
21 23:51 Calm 10.00 Fair CLR 52 48.9 89% 30.11 1019.3
21 22:51 Calm 1.00 Fog/Mist CLR 53.1 51.1 93% 30.1 1019.1
21 21:51 Calm 10.00 Fair CLR 55.9 54 93% 30.1 1019.1
21 20:51 Calm 10.00 Fair CLR 60.1 55.9 86% 30.09 1018.6
21 19:51 Vrbl 3 10.00 Fair CLR 69.1 55 75.9 69.1 61% 30.07 1017.7
21 18:51 Vrbl 3 10.00 Fair CLR 72 53.1 52% 30.07 1017.7
21 17:51 NW 9 10.00 Fair CLR 73 50 44% 30.06 1017.4
21 16:51 NW 8 10.00 Fair CLR 73.9 52 46% 30.07 1017.5
21 15:51 Vrbl 7 10.00 Fair CLR 73.9 53.1 48% 30.07 1017.5
21 14:51 N 7 10.00 Partly Cloudy FEW048 SCT065 73.9 53.1 48% 30.07 1017.4
21 13:51 Vrbl 6 10.00 Partly Cloudy FEW047 SCT070 72 51.1 73.9 62.1 48% 30.07 1017.5
21 12:51 Calm 10.00 Partly Cloudy SCT045 71.1 52 51% 30.07 1017.8
21 11:51 Vrbl 3 10.00 Mostly Cloudy FEW039 BKN055 71.1 52 51% 30.08 1017.8
21 10:51 Calm 10.00 Mostly Cloudy BKN035 BKN060 68 53.1 59% 30.08 1018.0
21 09:51 Calm 10.00 A Few Clouds FEW025 66 55.9 70% 30.08 1018.2
21 08:51 Calm 10.00 Overcast FEW020 SCT055 OVC085 63 57 81% 30.09 1018.4
21 07:51 Calm 10.00 Overcast SCT006 OVC050 63 59 63 59 87% 30.08 1018.0 0.02
21 06:51 Calm 10.00 Overcast FEW018 BKN065 OVC090 60.1 57.9 93% 30.06 1017.4 0.02
21 05:51 Calm 10.00 Overcast OVC040 59 57 93% 30.06 1017.1
21 04:51 Calm 9.00 Light Rain FEW008 BKN021 OVC070 60.1 57 90% 30.05 1016.8
21 03:51 W 3 10.00 Overcast BKN020 OVC034 60.1 54 80% 30.03 1016.4
21 02:51 Calm 10.00 Mostly Cloudy SCT033 BKN060 61 55 81% 30.04 1016.6
Date Time (edt) Wind (mph) Vis. (mi.) Weather Sky Cond. Air Dwpt Max. Min. Relative Humidity Wind Chill (°F) Heat Index (°F) altimeter (in) sea level (mb) 1 hr 3 hr 6 hr
6 hour
Temperature (ºF) Pressure Precipitation (in)